Weather Roundup
Issued by NWS

Home | Current Version | Previous Version | Graphics & Text | Print | Product List | Glossary Off
Versions: 1 2 3 4 5 6 7 8 9 10 11 12 13 14 15 16 17 18 19 20 21 22 23 24 25 26 27 28 29 30 31 32 33 34 35 36 37 38 39 40 41 42 43 44 45 46 47 48 49 50

000
NZUS93 KARX 020059
HRRWXR

CURRENT HOURLY OBSERVATIONS ACROSS
MUCH OF THE UPPER MISSISSIPPI VALLEY
NATIONAL WEATHER SERVICE LA CROSSE WI
700 PM CST THU DEC 01 2016


...SOUTHEAST MINNESOTA...


CITY           SKY/WX    TMP DP  RH WIND       PRES   REMARKS
ROCHESTER      CLOUDY    34  33  96 NW8       29.94R WCI  27
ROCHESTER/MAYO CLOUDY    36  33  91 W10       29.94R WCI  28
WINONA         CLOUDY    36  32  87 NW7       29.95R WCI  30
AUSTIN         DRIZZLE   36  32  87 W6        29.95R WCI  31
ALBERT LEA     CLOUDY    37  37 100 NW5       29.95S WCI  34
DODGE CENTER   CLOUDY    34  32  93 W8        29.94R WCI  27
PRESTON        CLOUDY    33  32  96 NW7       29.94R WCI  27
OWATONNA       DRIZZLE   36  32  87 W7        29.95R WCI  30
FARIBAULT      CLOUDY    36  30  80 W7        29.96R WCI  30
$$

...ELSEWHERE IN MINNESOTA...


CITY           SKY/WX    TMP DP  RH WIND       PRES   REMARKS
MINNEAPOLIS    CLOUDY    36  27  69 NW9       29.96R WCI  29
INTNL FALLS    CLOUDY    27  21  78 NW10      29.95R WCI  17
DULUTH         CLOUDY    28  21  75 NW9       29.91R WCI  19
RED WING       CLOUDY    37  28  70 N6        29.94R WCI  33
REDWOOD FALLS  CLOUDY    34  29  82 NW12G17   29.98R WCI  25
MANKATO        CLOUDY    35  32  88 NW10      29.97R WCI  27
WORTHINGTON    CLOUDY    32  29  88 NW8       30.00R WCI  25
FAIRMONT       CLOUDY    34  31  88 NW8       29.99R WCI  27
$$

...SOUTHWEST WISCONSIN...


CITY           SKY/WX    TMP DP  RH WIND       PRES   REMARKS
LA CROSSE      CLOUDY    39  32  76 W9        29.94R WCI  33
PRAIRIE DU CHI CLOUDY    37  32  83 W5        29.96R WCI  33
BOSCOBEL       CLOUDY    37  33  85 W5        29.96R WCI  33
LONE ROCK      NOT AVBL
PLATTEVILLE    CLOUDY    35  34  94 W8        29.95R WCI  29
FORT MC COY    CLOUDY    36  32  86 W5        29.92R WCI  32
MAUSTON-NEW LI CLOUDY    37  33  86 W7        29.90R WCI  31
VIROQUA        CLOUDY    33  33 100 W7        29.92R WCI  27
WIS DELLS      CLOUDY    37  31  82 W9        29.90R WCI  30
$$

...ELSEWHERE IN WISCONSIN...


CITY           SKY/WX    TMP DP  RH WIND       PRES   REMARKS
MILWAUKEE      CLOUDY    40  34  79 W9        29.90R WCI  34
MADISON        CLOUDY    38  31  76 VRB6      29.92R WCI  33
GREEN BAY      CLOUDY    40  33  76 NW9       29.86R WCI  34
EAU CLAIRE     NOT AVBL
BLACK RVR FLS  CLOUDY    35  35  99 W5        29.92R WCI  31
MEDFORD        CLOUDY    30  28  90 NW8       29.86R FOG     WCI  22
WAUSAU         FLURRIES  32  27  81 NW14G22   29.86R WCI  22
WIS RAPIDS     CLOUDY    36  29  75 NW8       29.90R WCI  30
MARSHFIELD     CLOUDY    33  28  81 NW14      29.88R WCI  23
RICE LAKE      CLOUDY    32  25  76 NW6       29.94R WCI  26
$$

...NORTHEAST IOWA...


CITY           SKY/WX    TMP DP  RH WIND       PRES   REMARKS
WATERLOO       CLOUDY    36  31  82 W6        29.98R WCI  31
DUBUQUE        CLOUDY    35  31  85 NW7       29.97R WCI  29
DECORAH        CLOUDY    34  34 100 CALM      29.94R
MASON CITY     CLOUDY    34  31  88 W9        29.98R WCI  27
CHARLES CITY   CLOUDY    36  34  93 W10       29.97R WCI  28
OELWEIN        CLOUDY    36  34  93 W9        29.97S WCI  29
$$

...ELSEWHERE IN IOWA...


CITY           SKY/WX    TMP DP  RH WIND       PRES   REMARKS
DES MOINES     CLOUDY    36  29  75 W8        30.03R WCI  30
IOWA CITY      CLOUDY    38  31  76 W12       30.02R WCI  30
FORT DODGE     CLOUDY    36  28  75 W6        30.00S WCI  31
MARSHALLTOWN   CLOUDY    36  33  89 W10       29.99R WCI  28
CEDAR RAPIDS   CLOUDY    36  34  92 W9        29.99R WCI  29
$$

...NORTHERN ILLINOIS...


CITY           SKY/WX    TMP DP  RH WIND       PRES   REMARKS
CHICAGO-OHARE  CLOUDY    38  32  79 W14G21    29.94R WCI  30
CHICAGO-MIDWAY CLOUDY    40  31  70 W12       29.96R WCI  33
MOLINE         CLOUDY    39  30  70 W10       30.01R WCI  32
ROCKFORD       DRIZZLE   37  33  85 W12       29.98R WCI  29
PEORIA         CLOUDY    37  30  75 W8        30.03S WCI  31
$$

NOTE: "FAIR" INDICATES FEW OR NO CLOUDS BELOW 12,000 FEET WITH NO
SIGNIFICANT WEATHER AND/OR OBSTRUCTIONS TO VISIBILITY. WIND
SPEEDS ARE IN MILES-PER-HOUR.




USA.gov is the U.S. government's official web portal to all federal, state and local government web resources and services.